,,PA_Meas_PMT16A,,PR_Meas_QMR101_102,,RH_Meas_QMH101,,SR_Meas_QMS101,,TA_Meas_QMH101,,GenWind,,GenWind,
time,status,PA,status,PR,status,RH,status,SR,status,TA,status,DirAvg,status,SpdAvg,
2015-11-26, 07:28:04,VALID,916.786,VALID,0,VALID,101.567,VALID,90.8952,VALID,19.2753,VALID,92,VALID,0,
2015-11-26, 07:29:04,VALID,916.833,VALID,0,VALID,101.597,VALID,93.4738,VALID,19.2348,VALID,105,VALID,0,
2015-11-26, 07:30:04,VALID,916.828,VALID,0,VALID,101.574,VALID,96.0524,VALID,19.2543,VALID,112,VALID,0,
2015-11-26, 07:31:04,VALID,916.864,VALID,0,VALID,101.613,VALID,98.5235,VALID,19.2363,VALID,112,VALID,0,
2015-11-26, 07:32:04,VALID,916.875,VALID,0,VALID,101.597,VALID,100.995,VALID,19.2753,VALID,136,VALID,0,
2015-11-26, 07:33:04,VALID,916.913,VALID,0,VALID,101.605,VALID,103.251,VALID,19.2738,VALID,127,VALID,0,
2015-11-26, 07:34:04,VALID,916.944,VALID,0,VALID,101.59,VALID,105.4,VALID,19.2933,VALID,127,VALID,0,
2015-11-26, 07:35:04,VALID,916.966,VALID,0,VALID,101.597,VALID,107.119,VALID,19.2933,VALID,123,VALID,0,
2015-11-26, 07:36:04,VALID,917.027,VALID,0,VALID,101.59,VALID,108.623,VALID,19.3323,VALID,100,VALID,0,
2015-11-26, 07:37:04,VALID,917.042,VALID,0,VALID,101.59,VALID,110.02,VALID,19.3143,VALID,99,VALID,0,
2015-11-26, 07:38:04,VALID,917.105,VALID,0,VALID,101.582,VALID,111.094,VALID,19.3728,VALID,112,VALID,0,
2015-11-26, 07:39:04,VALID,917.138,VALID,0,VALID,101.613,VALID,112.061,VALID,19.3323,VALID,121,VALID,0,
2015-11-26, 07:40:04,VALID,917.212,VALID,0,VALID,101.613,VALID,113.136,VALID,19.3128,VALID,130,VALID,0,
2015-11-26, 07:41:04,VALID,917.201,VALID,0,VALID,101.62,VALID,114.64,VALID,19.3713,VALID,131,VALID,0,
2015-11-26, 07:42:04,VALID,917.263,VALID,0,VALID,101.605,VALID,116.574,VALID,19.4313,VALID,132,VALID,0,
2015-11-26, 07:43:04,VALID,917.286,VALID,0,VALID,101.613,VALID,118.937,VALID,19.4118,VALID,132,VALID,0,
2015-11-26, 07:44:04,VALID,917.297,VALID,0,VALID,101.613,VALID,121.409,VALID,19.3908,VALID,132,VALID,0,
2015-11-26, 07:45:04,VALID,917.362,VALID,0,VALID,101.613,VALID,123.665,VALID,19.4298,VALID,132,VALID,0,
2015-11-26, 07:46:04,VALID,917.387,VALID,0,VALID,101.628,VALID,125.814,VALID,19.4493,VALID,131,VALID,0,
2015-11-26, 07:47:04,VALID,917.42,VALID,0,VALID,101.613,VALID,127.855,VALID,19.5273,VALID,132,VALID,0,
2015-11-26, 07:48:04,VALID,917.408,VALID,0,VALID,101.59,VALID,129.574,VALID,19.6053,VALID,131,VALID,0,
2015-11-26, 07:49:04,VALID,917.477,VALID,0,VALID,101.552,VALID,131.078,VALID,19.7028,VALID,132,VALID,0,
2015-11-26, 07:50:04,VALID,917.454,VALID,0,VALID,101.559,VALID,132.153,VALID,19.7043,VALID,132,VALID,0,
2015-11-26, 07:51:04,VALID,917.484,VALID,0,VALID,101.574,VALID,132.69,VALID,19.7223,VALID,132,VALID,0,
2015-11-26, 07:52:04,VALID,917.554,VALID,0,VALID,101.597,VALID,132.905,VALID,19.7223,VALID,132,VALID,0,
2015-11-26, 07:53:04,VALID,917.525,VALID,0,VALID,101.574,VALID,132.69,VALID,19.7808,VALID,132,VALID,0,
2015-11-26, 07:54:04,VALID,917.572,VALID,0,VALID,101.567,VALID,132.69,VALID,19.8393,VALID,132,VALID,0,
2015-11-26, 07:55:04,VALID,917.592,VALID,0,VALID,101.559,VALID,133.12,VALID,19.9173,VALID,132,VALID,0,
2015-11-26, 07:56:04,VALID,917.618,VALID,0,VALID,101.567,VALID,134.087,VALID,19.8783,VALID,132,VALID,0,
2015-11-26, 07:57:04,VALID,917.622,VALID,0,VALID,101.559,VALID,135.806,VALID,19.9368,VALID,132,VALID,0,
2015-11-26, 07:58:04,VALID,917.615,VALID,0,VALID,101.567,VALID,137.632,VALID,19.9368,VALID,135,VALID,0,
2015-11-26, 07:59:04,VALID,917.617,VALID,0,VALID,101.597,VALID,140.103,VALID,19.9758,VALID,141,VALID,0,
2015-11-26, 08:00:04,VALID,917.617,VALID,0,VALID,101.62,VALID,143.004,VALID,19.9758,VALID,141,VALID,0,
2015-11-26, 08:01:04,VALID,917.621,VALID,0,VALID,101.613,VALID,145.69,VALID,20.0343,VALID,141,VALID,0,
2015-11-26, 08:02:04,VALID,917.61,VALID,0,VALID,101.59,VALID,147.839,VALID,20.1123,VALID,141,VALID,0,
2015-11-26, 08:03:04,VALID,917.623,VALID,0,VALID,101.567,VALID,149.021,VALID,20.1903,VALID,141,VALID,0,
2015-11-26, 08:04:04,VALID,917.661,VALID,0,VALID,101.605,VALID,149.236,VALID,20.1498,VALID,141,VALID,0,
2015-11-26, 08:05:04,VALID,917.672,VALID,0,VALID,101.605,VALID,148.484,VALID,20.2098,VALID,141,VALID,0,
2015-11-26, 08:06:04,VALID,917.693,VALID,0,VALID,101.658,VALID,147.087,VALID,20.1513,VALID,141,VALID,0,
2015-11-26, 08:07:04,VALID,917.729,VALID,0,VALID,101.689,VALID,145.368,VALID,20.1708,VALID,141,VALID,0,
2015-11-26, 08:08:04,VALID,917.745,VALID,0,VALID,101.719,VALID,143.756,VALID,20.1123,VALID,141,VALID,0,
2015-11-26, 08:09:04,VALID,917.781,VALID,0,VALID,101.795,VALID,141.822,VALID,20.0928,VALID,141,VALID,0,
2015-11-26, 08:10:04,VALID,917.766,VALID,0,VALID,101.734,VALID,139.888,VALID,20.2489,VALID,124,VALID,0,
2015-11-26, 08:11:04,VALID,917.804,VALID,0,VALID,101.75,VALID,138.277,VALID,20.2684,VALID,113,VALID,0,
2015-11-26, 08:12:04,VALID,917.81,VALID,0,VALID,101.742,VALID,137.74,VALID,20.3464,VALID,111,VALID,0,
2015-11-26, 08:13:04,VALID,917.79,VALID,0,VALID,101.719,VALID,138.062,VALID,20.4244,VALID,111,VALID,0,
2015-11-26, 08:14:04,VALID,917.809,VALID,0,VALID,101.689,VALID,138.599,VALID,20.4813,VALID,111,VALID,0,
2015-11-26, 08:15:04,VALID,917.817,VALID,0,VALID,101.681,VALID,139.136,VALID,20.5609,VALID,111,VALID,0,
2015-11-26, 08:16:04,VALID,917.828,VALID,0,VALID,101.643,VALID,139.459,VALID,20.639,VALID,111,VALID,0,
2015-11-26, 08:17:04,VALID,917.849,VALID,0,VALID,101.689,VALID,140.103,VALID,20.678,VALID,111,VALID,0,
2015-11-26, 08:18:04,VALID,917.865,VALID,0,VALID,101.712,VALID,140.855,VALID,20.639,VALID,111,VALID,0,
2015-11-26, 08:19:04,VALID,917.89,VALID,0,VALID,101.811,VALID,142.145,VALID,20.5399,VALID,111,VALID,0,
2015-11-26, 08:20:04,VALID,917.899,VALID,0,VALID,101.841,VALID,143.864,VALID,20.5399,VALID,111,VALID,0,
2015-11-26, 08:21:04,VALID,917.913,VALID,0,VALID,101.864,VALID,145.69,VALID,20.5999,VALID,111,VALID,0,
2015-11-26, 08:22:04,VALID,917.932,VALID,0,VALID,101.841,VALID,147.946,VALID,20.6585,VALID,111,VALID,0,
2015-11-26, 08:23:04,VALID,917.94,VALID,0,VALID,101.872,VALID,151.17,VALID,20.6764,VALID,111,VALID,0,
2015-11-26, 08:24:04,VALID,917.958,VALID,0,VALID,101.856,VALID,156.219,VALID,20.7154,VALID,111,VALID,0,
2015-11-26, 08:25:04,VALID,917.963,VALID,0,VALID,101.917,VALID,163.955,VALID,20.6764,VALID,111,VALID,0,
2015-11-26, 08:26:04,VALID,917.925,VALID,0,VALID,101.933,VALID,172.658,VALID,20.6764,VALID,111,VALID,0,
2015-11-26, 08:27:04,VALID,917.929,VALID,0,VALID,101.91,VALID,181.683,VALID,20.7739,VALID,111,VALID,0,
2015-11-26, 08:28:04,VALID,917.934,VALID,0,VALID,101.94,VALID,190.278,VALID,20.7755,VALID,111,VALID,0,
2015-11-26, 08:29:04,VALID,917.94,VALID,0,VALID,102.001,VALID,197.262,VALID,20.7349,VALID,111,VALID,0,
2015-11-26, 08:30:04,VALID,917.934,VALID,0,VALID,101.94,VALID,201.667,VALID,20.891,VALID,111,VALID,0,
2015-11-26, 08:31:04,VALID,917.949,VALID,0,VALID,101.902,VALID,203.601,VALID,20.9674,VALID,111,VALID,0,
2015-11-26, 08:32:04,VALID,917.91,VALID,0,VALID,101.895,VALID,204.783,VALID,21.0665,VALID,111,VALID,0,
2015-11-26, 08:33:04,VALID,917.948,VALID,0,VALID,101.849,VALID,204.031,VALID,21.2031,VALID,111,VALID,0,
2015-11-26, 08:34:04,VALID,917.951,VALID,0,VALID,101.849,VALID,201.13,VALID,21.3006,VALID,110,VALID,0,
2015-11-26, 08:35:04,VALID,917.99,VALID,0,VALID,101.872,VALID,198.336,VALID,21.3786,VALID,111,VALID,0,
2015-11-26, 08:36:04,VALID,917.999,VALID,0,VALID,101.879,VALID,196.295,VALID,21.3965,VALID,117,VALID,0,
2015-11-26, 08:37:04,VALID,918.001,VALID,0,VALID,101.872,VALID,196.188,VALID,21.4567,VALID,117,VALID,0,
2015-11-26, 08:38:04,VALID,918.002,VALID,0,VALID,101.963,VALID,197.369,VALID,21.3786,VALID,117,VALID,0,
2015-11-26, 08:39:04,VALID,918.008,VALID,0,VALID,101.994,VALID,199.411,VALID,21.4177,VALID,117,VALID,0,
2015-11-26, 08:40:04,VALID,918.04,VALID,0,VALID,102.078,VALID,201.774,VALID,21.3575,VALID,117,VALID,0,
2015-11-26, 08:41:04,VALID,918.003,VALID,0,VALID,102.123,VALID,204.353,VALID,21.4372,VALID,116,VALID,0,
2015-11-26, 08:42:04,VALID,917.999,VALID,0,VALID,102.07,VALID,204.461,VALID,21.5542,VALID,116,VALID,0,
2015-11-26, 08:43:04,VALID,918.032,VALID,0,VALID,102.1,VALID,203.279,VALID,21.6111,VALID,107,VALID,0,
2015-11-26, 08:44:04,VALID,918.011,VALID,0,VALID,102.169,VALID,200.915,VALID,21.6306,VALID,10,VALID,0,
2015-11-26, 08:45:04,VALID,918.031,VALID,0,VALID,102.215,VALID,198.121,VALID,21.6306,VALID,10,VALID,0,
2015-11-26, 08:46:04,VALID,918.059,VALID,0,VALID,102.26,VALID,195.221,VALID,21.5916,VALID,10,VALID,0,
2015-11-26, 08:47:04,VALID,918.048,VALID,0,VALID,102.268,VALID,193.716,VALID,21.6306,VALID,10,VALID,0,
2015-11-26, 08:48:04,VALID,918.024,VALID,0,VALID,102.2,VALID,194.146,VALID,21.7087,VALID,10,VALID,0,
2015-11-26, 08:49:04,VALID,918.04,VALID,0,VALID,102.291,VALID,195.113,VALID,21.7087,VALID,10,VALID,0,
2015-11-26, 08:50:04,VALID,918.019,VALID,0,VALID,102.39,VALID,195.113,VALID,21.7282,VALID,10,VALID,0,
2015-11-26, 08:51:04,VALID,918.045,VALID,0,VALID,102.604,VALID,193.502,VALID,21.668,VALID,9,VALID,0,
2015-11-26, 08:52:04,VALID,918.042,VALID,0,VALID,102.863,VALID,189.956,VALID,21.6111,VALID,350,VALID,0,
2015-11-26, 08:53:04,VALID,918.059,VALID,0,VALID,102.908,VALID,186.733,VALID,21.668,VALID,32,VALID,0,
2015-11-26, 08:54:04,VALID,918.079,VALID,0,VALID,103.267,VALID,183.617,VALID,21.6111,VALID,17,VALID,0,
2015-11-26, 08:55:04,VALID,918.092,VALID,0,VALID,103.343,VALID,180.071,VALID,21.6696,VALID,8,VALID,0,
2015-11-26, 08:56:04,VALID,918.117,VALID,0,VALID,103.473,VALID,177.6,VALID,21.7298,VALID,1,VALID,0,
2015-11-26, 08:57:04,VALID,918.114,VALID,0,VALID,103.457,VALID,177.278,VALID,21.8469,VALID,15,VALID,0,
2015-11-26, 08:58:04,VALID,918.131,VALID,0,VALID,103.755,VALID,179.964,VALID,21.746,VALID,8,VALID,0,
2015-11-26, 08:59:04,VALID,918.091,VALID,0,VALID,103.755,VALID,183.939,VALID,21.8062,VALID,1,VALID,0,
2015-11-26, 09:00:04,VALID,918.127,VALID,0,VALID,103.678,VALID,186.84,VALID,21.8842,VALID,1,VALID,0,
2015-11-26, 09:01:04,VALID,918.118,VALID,0,VALID,103.671,VALID,187.807,VALID,21.9428,VALID,1,VALID,0,
2015-11-26, 09:02:04,VALID,918.135,VALID,0,VALID,103.884,VALID,186.948,VALID,21.8452,VALID,13,VALID,0,
2015-11-26, 09:03:04,VALID,918.12,VALID,0,VALID,103.983,VALID,186.41,VALID,21.7867,VALID,26,VALID,0,
2015-11-26, 09:04:04,VALID,918.139,VALID,0,VALID,104,VALID,187.162,VALID,21.7282,VALID,21,VALID,0,
2015-11-26, 09:05:04,VALID,918.134,VALID,0,VALID,104,VALID,186.948,VALID,21.6501,VALID,15,VALID,0,
2015-11-26, 09:06:04,VALID,918.162,VALID,0,VALID,103.915,VALID,184.906,VALID,21.7867,VALID,323,VALID,0,
2015-11-26, 09:07:04,VALID,918.184,VALID,0,VALID,103.747,VALID,182.543,VALID,21.8826,VALID,314,VALID,0,
2015-11-26, 09:08:04,VALID,918.17,VALID,0,VALID,103.61,VALID,180.823,VALID,22.0208,VALID,314,VALID,0,
2015-11-26, 09:09:04,VALID,918.156,VALID,0,VALID,103.671,VALID,177.493,VALID,22.0403,VALID,343,VALID,0,
2015-11-26, 09:10:04,VALID,918.181,VALID,0,VALID,103.617,VALID,174.377,VALID,21.9233,VALID,360,VALID,0,
2015-11-26, 09:11:04,VALID,918.209,VALID,0,VALID,103.435,VALID,173.088,VALID,21.9623,VALID,8,VALID,0,
2015-11-26, 09:12:04,VALID,918.239,VALID,0,VALID,103.358,VALID,173.732,VALID,22.0387,VALID,271,VALID,0,
2015-11-26, 09:13:04,VALID,918.264,VALID,0,VALID,103.343,VALID,175.774,VALID,22.0208,VALID,271,VALID,0,
2015-11-26, 09:14:04,VALID,918.263,VALID,0,VALID,103.351,VALID,180.823,VALID,21.9818,VALID,271,VALID,0,
2015-11-26, 09:15:04,VALID,918.284,VALID,0,VALID,103.358,VALID,189.741,VALID,21.9428,VALID,271,VALID,0,
2015-11-26, 09:16:04,VALID,918.239,VALID,0,VALID,103.343,VALID,203.279,VALID,21.9216,VALID,302,VALID,0,
2015-11-26, 09:17:04,VALID,918.269,VALID,0,VALID,103.252,VALID,221.329,VALID,21.8062,VALID,308,VALID,0,
2015-11-26, 09:18:04,VALID,918.286,VALID,0,VALID,102.802,VALID,237.767,VALID,21.6875,VALID,319,VALID,0,
2015-11-26, 09:19:04,VALID,918.254,VALID,0,VALID,102.001,VALID,252.809,VALID,21.668,VALID,319,VALID,0,
2015-11-26, 09:20:04,VALID,918.259,VALID,0,VALID,101.437,VALID,266.991,VALID,21.785,VALID,307,VALID,0,
2015-11-26, 09:21:04,VALID,918.259,VALID,0,VALID,100.888,VALID,279.669,VALID,21.8436,VALID,309,VALID,0,
2015-11-26, 09:22:04,VALID,918.26,VALID,0,VALID,101.414,VALID,278.81,VALID,22.0403,VALID,309,VALID,0,
2015-11-26, 09:23:04,VALID,918.272,VALID,0,VALID,101.216,VALID,277.628,VALID,22.0794,VALID,294,VALID,0,
2015-11-26, 09:24:04,VALID,918.268,VALID,0,VALID,100.904,VALID,278.81,VALID,22.1362,VALID,293,VALID,0,
2015-11-26, 09:25:04,VALID,918.244,VALID,0,VALID,101.048,VALID,279.992,VALID,22.2728,VALID,8,VALID,0,
2015-11-26, 09:26:04,VALID,918.232,VALID,0,VALID,98.9672,VALID,282.893,VALID,22.2923,VALID,22,VALID,0.0992187,
2015-11-26, 09:27:04,VALID,918.249,VALID,0,VALID,98.9824,VALID,287.942,VALID,22.4289,VALID,346,VALID,0,
2015-11-26, 09:28:04,VALID,918.257,VALID,0,VALID,99.3865,VALID,298.901,VALID,22.5689,VALID,335,VALID,0,
2015-11-26, 09:29:04,VALID,918.218,VALID,0,VALID,99.2874,VALID,312.654,VALID,22.5672,VALID,331,VALID,0,
2015-11-26, 09:30:04,VALID,918.22,VALID,0,VALID,99.8515,VALID,319.1,VALID,22.5867,VALID,280,VALID,0,
2015-11-26, 09:31:04,VALID,918.256,VALID,0,VALID,98.525,VALID,323.183,VALID,22.5672,VALID,293,VALID,0,
2015-11-26, 09:32:04,VALID,918.218,VALID,0,VALID,99.0129,VALID,327.266,VALID,22.6647,VALID,302,VALID,0,
2015-11-26, 09:33:04,VALID,918.181,VALID,0,VALID,98.83,VALID,326.084,VALID,22.7428,VALID,11,VALID,0,
2015-11-26, 09:34:04,VALID,918.172,VALID,0,VALID,98.4717,VALID,327.481,VALID,22.8794,VALID,347,VALID,0,
2015-11-26, 09:35:04,VALID,918.172,VALID,0,VALID,98.5403,VALID,327.481,VALID,23.0356,VALID,349,VALID,0,
2015-11-26, 09:36:04,VALID,918.146,VALID,0,VALID,89.476,VALID,329.415,VALID,23.0338,VALID,281,VALID,0,
2015-11-26, 09:37:04,VALID,918.133,VALID,0,VALID,81.136,VALID,327.481,VALID,23.1136,VALID,11,VALID,0.403125,
2015-11-26, 09:38:04,VALID,918.139,VALID,0,VALID,77.9952,VALID,326.299,VALID,23.1527,VALID,6,VALID,0.698438,
2015-11-26, 09:39:04,VALID,918.143,VALID,0,VALID,81.4791,VALID,323.29,VALID,23.229,VALID,338,VALID,0,
2015-11-26, 09:40:04,VALID,918.129,VALID,0,VALID,82.7141,VALID,319.96,VALID,23.3478,VALID,41,VALID,0,
2015-11-26, 09:41:04,VALID,918.141,VALID,0,VALID,82.6455,VALID,318.885,VALID,23.4632,VALID,24,VALID,0,
2015-11-26, 09:42:04,VALID,918.145,VALID,0,VALID,80.8768,VALID,319.96,VALID,23.543,VALID,23,VALID,0,
2015-11-26, 09:43:04,VALID,918.101,VALID,0,VALID,81.1741,VALID,322.001,VALID,23.6406,VALID,356,VALID,0,
2015-11-26, 09:44:04,VALID,918.132,VALID,0,VALID,80.0001,VALID,327.373,VALID,23.6779,VALID,353,VALID,0,
2015-11-26, 09:45:04,VALID,918.11,VALID,0,VALID,80.3661,VALID,333.605,VALID,23.7578,VALID,19,VALID,0,
2015-11-26, 09:46:04,VALID,918.136,VALID,0,VALID,76.5238,VALID,344.456,VALID,23.6974,VALID,26,VALID,0.0289063,
2015-11-26, 09:47:04,VALID,918.14,VALID,0,VALID,79.1768,VALID,365.515,VALID,23.7169,VALID,351,VALID,0,
2015-11-26, 09:48:04,VALID,918.167,VALID,0,VALID,75.5557,VALID,389.689,VALID,23.7364,VALID,348,VALID,0,
2015-11-26, 09:49:04,VALID,918.147,VALID,0,VALID,76.1046,VALID,418.913,VALID,23.756,VALID,346,VALID,0,
2015-11-26, 09:50:04,VALID,918.193,VALID,0,VALID,74.7019,VALID,392.805,VALID,23.795,VALID,360,VALID,0.691406,
2015-11-26, 09:51:04,VALID,918.192,VALID,0,VALID,76.1503,VALID,437.178,VALID,23.8145,VALID,354,VALID,0,
2015-11-26, 09:52:04,VALID,918.213,VALID,0,VALID,75.8301,VALID,379.804,VALID,23.795,VALID,340,VALID,0,
2015-11-26, 09:53:04,VALID,918.195,VALID,0,VALID,78.5745,VALID,378.945,VALID,23.834,VALID,12,VALID,0,
2015-11-26, 09:54:04,VALID,918.199,VALID,0,VALID,75.4032,VALID,379.16,VALID,23.8731,VALID,29,VALID,0,
2015-11-26, 09:55:04,VALID,918.233,VALID,0,VALID,75.5709,VALID,373.788,VALID,23.9316,VALID,1,VALID,0,
2015-11-26, 09:56:04,VALID,918.197,VALID,0,VALID,74.3969,VALID,366.589,VALID,24.0097,VALID,332,VALID,0,
2015-11-26, 09:57:04,VALID,918.204,VALID,0,VALID,75.1593,VALID,377.118,VALID,23.9707,VALID,343,VALID,0,
2015-11-26, 09:58:04,VALID,918.224,VALID,0,VALID,75.0068,VALID,374.325,VALID,23.9353,VALID,9,VALID,0,
2015-11-26, 09:59:04,VALID,918.214,VALID,0,VALID,74.1453,VALID,375.937,VALID,23.8358,VALID,352,VALID,0,
2015-11-26, 10:00:04,VALID,918.201,VALID,0,VALID,74.031,VALID,359.391,VALID,23.8163,VALID,347,VALID,0,
2015-11-26, 10:01:04,VALID,918.217,VALID,0,VALID,72.7579,VALID,355.953,VALID,23.8358,VALID,346,VALID,0,
2015-11-26, 10:02:04,VALID,918.25,VALID,0,VALID,75.5785,VALID,368.093,VALID,23.8554,VALID,352,VALID,0,
2015-11-26, 10:03:04,VALID,918.257,VALID,0,VALID,77.9799,VALID,342.845,VALID,23.9139,VALID,17,VALID,0,
2015-11-26, 10:04:04,VALID,918.242,VALID,0,VALID,77.5225,VALID,342.952,VALID,24.0506,VALID,17,VALID,0,
2015-11-26, 10:05:04,VALID,918.256,VALID,0,VALID,77.3624,VALID,340.911,VALID,24.2068,VALID,39,VALID,0,
2015-11-26, 10:06:04,VALID,918.284,VALID,0,VALID,75.67,VALID,342.308,VALID,24.3435,VALID,5,VALID,0,
2015-11-26, 10:07:04,VALID,918.264,VALID,0,VALID,72.4911,VALID,348.002,VALID,24.3416,VALID,19,VALID,0,
2015-11-26, 10:08:04,VALID,918.291,VALID,0,VALID,75.7691,VALID,349.291,VALID,24.3416,VALID,351,VALID,0,
2015-11-26, 10:09:04,VALID,918.258,VALID,0,VALID,75.975,VALID,375.829,VALID,24.3806,VALID,343,VALID,0,
2015-11-26, 10:10:04,VALID,918.255,VALID,0,VALID,77.6902,VALID,362.721,VALID,24.4587,VALID,17,VALID,0,
2015-11-26, 10:11:04,VALID,918.241,VALID,0,VALID,72.8036,VALID,368.953,VALID,24.5582,VALID,6,VALID,0,
2015-11-26, 10:12:04,VALID,918.259,VALID,0,VALID,73.1314,VALID,374.325,VALID,24.5582,VALID,346,VALID,0,
2015-11-26, 10:13:04,VALID,918.208,VALID,0,VALID,72.3767,VALID,372.284,VALID,24.4783,VALID,26,VALID,0,
2015-11-26, 10:14:04,VALID,918.198,VALID,0,VALID,73.0247,VALID,399.466,VALID,24.4392,VALID,24,VALID,0,
2015-11-26, 10:15:04,VALID,918.184,VALID,0,VALID,75.1669,VALID,367.234,VALID,24.5778,VALID,353,VALID,0,
2015-11-26, 10:16:04,VALID,918.168,VALID,0,VALID,74.2902,VALID,366.482,VALID,24.5387,VALID,295,VALID,0,
2015-11-26, 10:17:04,VALID,918.185,VALID,0,VALID,74.3054,VALID,391.408,VALID,24.5582,VALID,309,VALID,0,
2015-11-26, 10:18:04,VALID,918.162,VALID,0,VALID,75.3117,VALID,473.708,VALID,24.4801,VALID,321,VALID,0,
2015-11-26, 10:19:04,VALID,918.181,VALID,0,VALID,76.1656,VALID,500.246,VALID,24.5173,VALID,321,VALID,0,
2015-11-26, 10:20:04,VALID,918.132,VALID,0,VALID,74.2368,VALID,524.42,VALID,24.654,VALID,312,VALID,0,
2015-11-26, 10:21:04,VALID,918.117,VALID,0,VALID,72.735,VALID,525.495,VALID,24.7711,VALID,282,VALID,0,
2015-11-26, 10:22:04,VALID,918.152,VALID,0,VALID,72.087,VALID,531.404,VALID,24.8297,VALID,282,VALID,0,
2015-11-26, 10:23:04,VALID,918.112,VALID,0,VALID,72.735,VALID,529.148,VALID,24.8883,VALID,355,VALID,0,
2015-11-26, 10:24:04,VALID,918.124,VALID,0,VALID,71.8888,VALID,532.263,VALID,24.8511,VALID,260,VALID,0,
2015-11-26, 10:25:04,VALID,918.099,VALID,0,VALID,73.5888,VALID,523.453,VALID,24.7516,VALID,250,VALID,0,
2015-11-26, 10:26:04,VALID,918.114,VALID,0,VALID,75.3498,VALID,525.924,VALID,24.693,VALID,250,VALID,0,
2015-11-26, 10:27:04,VALID,918.1,VALID,0,VALID,72.4148,VALID,523.668,VALID,24.7321,VALID,276,VALID,0,
2015-11-26, 10:28:04,VALID,918.093,VALID,0,VALID,71.9879,VALID,515.288,VALID,24.8083,VALID,289,VALID,0,
2015-11-26, 10:29:04,VALID,918.102,VALID,0,VALID,72.3996,VALID,509.486,VALID,24.9645,VALID,278,VALID,0,
2015-11-26, 10:30:04,VALID,918.077,VALID,0,VALID,72.026,VALID,504.006,VALID,25.0426,VALID,289,VALID,0,
2015-11-26, 10:31:04,VALID,918.074,VALID,0,VALID,70.0287,VALID,518.404,VALID,25.1207,VALID,295,VALID,0,
2015-11-26, 10:32:04,VALID,918.092,VALID,0,VALID,65.5766,VALID,523.883,VALID,25.0036,VALID,289,VALID,0,
2015-11-26, 10:33:04,VALID,918.064,VALID,0,VALID,68.7022,VALID,520.66,VALID,24.9255,VALID,291,VALID,0,
2015-11-26, 10:34:04,VALID,918.097,VALID,0,VALID,68.5269,VALID,517.544,VALID,24.8083,VALID,302,VALID,0,
2015-11-26, 10:35:04,VALID,918.078,VALID,0,VALID,70.4404,VALID,515.288,VALID,24.6912,VALID,287,VALID,0,
2015-11-26, 10:36:04,VALID,918.039,VALID,0,VALID,71.3323,VALID,525.924,VALID,24.7888,VALID,285,VALID,0,
2015-11-26, 10:37:04,VALID,918.053,VALID,0,VALID,71.7745,VALID,530.652,VALID,24.9274,VALID,294,VALID,0,
2015-11-26, 10:38:04,VALID,918.032,VALID,0,VALID,70.8749,VALID,514.536,VALID,24.9859,VALID,275,VALID,0,
2015-11-26, 10:39:04,VALID,918.068,VALID,0,VALID,71.561,VALID,483.163,VALID,25.1226,VALID,15,VALID,0,
2015-11-26, 10:40:04,VALID,918.064,VALID,0,VALID,71.561,VALID,534.735,VALID,25.396,VALID,7,VALID,0,
2015-11-26, 10:41:04,VALID,918.04,VALID,0,VALID,70.9588,VALID,528.933,VALID,25.5698,VALID,328,VALID,0,
2015-11-26, 10:42:04,VALID,918.071,VALID,0,VALID,69.3578,VALID,493.692,VALID,25.8648,VALID,341,VALID,0,
2015-11-26, 10:43:04,VALID,918.065,VALID,0,VALID,67.5053,VALID,508.734,VALID,26.0972,VALID,319,VALID,0,
2015-11-26, 10:44:04,VALID,918.057,VALID,0,VALID,64.9896,VALID,488.642,VALID,26.1187,VALID,256,VALID,0,
2015-11-26, 10:45:04,VALID,918.071,VALID,0,VALID,67.8408,VALID,455.98,VALID,26.1753,VALID,277,VALID,0,
2015-11-26, 10:46:04,VALID,918.083,VALID,0,VALID,65.4013,VALID,442.013,VALID,26.0972,VALID,282,VALID,0,
2015-11-26, 10:47:04,VALID,918.067,VALID,0,VALID,65.1497,VALID,464.361,VALID,25.9604,VALID,282,VALID,0,
2015-11-26, 10:48:04,VALID,918.073,VALID,0,VALID,69.2282,VALID,451.683,VALID,25.9214,VALID,9,VALID,0,
2015-11-26, 10:49:04,VALID,918.083,VALID,0,VALID,67.5892,VALID,445.129,VALID,25.9019,VALID,13,VALID,0,
2015-11-26, 10:50:04,VALID,918.031,VALID,0,VALID,67.7798,VALID,452.542,VALID,25.9019,VALID,346,VALID,0,
2015-11-26, 10:51:04,VALID,918.045,VALID,0,VALID,70.1049,VALID,435.996,VALID,25.8433,VALID,9,VALID,1.27461,
2015-11-26, 10:52:04,VALID,918.055,VALID,0,VALID,69.0758,VALID,411.715,VALID,25.646,VALID,29,VALID,1.2918,
2015-11-26, 10:53:04,VALID,918.051,VALID,0,VALID,69.0529,VALID,404.409,VALID,25.5718,VALID,338,VALID,0,
2015-11-26, 10:54:04,VALID,918.091,VALID,0,VALID,66.7735,VALID,404.086,VALID,25.4331,VALID,331,VALID,0,
2015-11-26, 10:55:04,VALID,918.07,VALID,0,VALID,67.8027,VALID,403.979,VALID,25.2769,VALID,322,VALID,0.810547,
2015-11-26, 10:56:04,VALID,918.116,VALID,0,VALID,73.2915,VALID,407.739,VALID,25.1012,VALID,341,VALID,0.0898438,
2015-11-26, 10:57:04,VALID,918.114,VALID,0,VALID,71.0274,VALID,418.376,VALID,25.1031,VALID,23,VALID,0,
2015-11-26, 10:58:04,VALID,918.101,VALID,0,VALID,72.1099,VALID,419.343,VALID,25.2183,VALID,20,VALID,0.516406,
2015-11-26, 10:59:04,VALID,918.122,VALID,0,VALID,69.6094,VALID,416.442,VALID,25.2183,VALID,21,VALID,1.58477,
2015-11-26, 11:00:04,VALID,918.136,VALID,0,VALID,69.9067,VALID,426.004,VALID,25.1598,VALID,26,VALID,1.73203,
2015-11-26, 11:01:04,VALID,918.127,VALID,0,VALID,70.2727,VALID,429.12,VALID,25.0017,VALID,10,VALID,1.4043,
2015-11-26, 11:02:04,VALID,918.121,VALID,0,VALID,69.7466,VALID,429.657,VALID,24.8474,VALID,1,VALID,2.20117,
2015-11-26, 11:03:04,VALID,918.116,VALID,0,VALID,70.4632,VALID,427.401,VALID,24.6698,VALID,36,VALID,0.627734,
2015-11-26, 11:04:04,VALID,918.117,VALID,0,VALID,72.5368,VALID,431.699,VALID,24.6716,VALID,37,VALID,0.310547,
2015-11-26, 11:05:04,VALID,918.1,VALID,0,VALID,73.3678,VALID,448.137,VALID,24.8688,VALID,20,VALID,0.0113281,
2015-11-26, 11:06:04,VALID,918.091,VALID,0,VALID,73.7337,VALID,449.534,VALID,25.0231,VALID,30,VALID,1.4668,
2015-11-26, 11:07:04,VALID,918.092,VALID,0,VALID,72.0794,VALID,466.832,VALID,25.0993,VALID,2,VALID,0,
2015-11-26, 11:08:04,VALID,918.078,VALID,0,VALID,71.2027,VALID,487.998,VALID,25.1402,VALID,19,VALID,0.639844,
2015-11-26, 11:09:04,VALID,918.071,VALID,0,VALID,73.9014,VALID,498.419,VALID,25.1969,VALID,349,VALID,0.00585938,
2015-11-26, 11:10:04,VALID,918.057,VALID,0,VALID,71.8126,VALID,482.518,VALID,25.2379,VALID,16,VALID,0.128516,
2015-11-26, 11:11:04,VALID,918.04,VALID,0,VALID,69.9753,VALID,534.412,VALID,25.1969,VALID,297,VALID,0,
2015-11-26, 11:12:04,VALID,918.03,VALID,0,VALID,72.1023,VALID,471.989,VALID,25.1402,VALID,297,VALID,0,
2015-11-26, 11:13:04,VALID,918.021,VALID,0,VALID,73.1619,VALID,474.997,VALID,25.1383,VALID,297,VALID,0,
2015-11-26, 11:14:04,VALID,918.041,VALID,0,VALID,75.5099,VALID,474.46,VALID,25.316,VALID,357,VALID,0,